Weather reports worldwide

Advertisment
Saarbrücken-Ensheim, Germany (10708): temperature & dewpoint: 19.03.2019 18:00:00 - 25.03.2019 18:00:00 (CET)Saarbrücken-Ensheim, Germany (10708): temperature 5cm & temperature -5cm: 19.03.2019 18:00:00 - 25.03.2019 18:00:00 (CET)Saarbrücken-Ensheim, Germany (10708): temperature -20cm & temperature -100cm: 19.03.2019 18:00:00 - 25.03.2019 18:00:00 (CET)Saarbrücken-Ensheim, Germany (10708): wind speed & gusts: 19.03.2019 18:00:00 - 25.03.2019 18:00:00 (CET)Saarbrücken-Ensheim, Germany (10708): wind direction: 19.03.2019 18:00:00 - 25.03.2019 18:00:00 (CET)Saarbrücken-Ensheim, Germany (10708): reduced air pressure: 19.03.2019 18:00:00 - 25.03.2019 18:00:00 (CET)Saarbrücken-Ensheim, Germany (10708): visibility: 19.03.2019 18:00:00 - 25.03.2019 18:00:00 (CET)Saarbrücken-Ensheim, Germany (10708): sunshine duration: 19.03.2019 18:00:00 - 25.03.2019 18:00:00 (CET)Saarbrücken-Ensheim, Germany (10708): precipitation: 19.03.2019 18:00:00 - 25.03.2019 18:00:00 (CET)
Date & Time tt [°C] td [°C] tt 5cm [°C] tt -5cm [°C] tt -20cm [°C] tt -100cm [°C] ff [km/h] ff [kn] fx [km/h] fx [kn] dd ppp [hPa] vv [km] sd [min] rr [mm]
25.03.2019 18:00:00 - - - - - - - - - - - - - - -
25.03.2019 17:00:00 8,0 -1,0 9,7 13,5 10,0 7,7 34 18 53 28 WNW 1024,1 10 48 0,0
25.03.2019 16:00:00 8,9 -2,3 12,0 14,2 9,6 7,7 25 13 45 24 NW 1023,6 45 56 0,0
25.03.2019 15:00:00 9,8 -0,5 14,1 13,8 9,1 7,7 29 16 46 25 WNW 1023,6 10 40 0,0
25.03.2019 14:00:00 9,3 -3,2 14,1 13,4 8,5 7,7 28 15 55 30 WNW 1023,4 10 51 0,0
25.03.2019 13:00:00 8,8 -2,7 13,0 11,7 8,0 7,7 34 18 54 29 W 1023,9 10 40 0,0
25.03.2019 12:00:00 7,5 -0,7 10,5 10,0 7,5 7,7 22 12 37 20 WNW 1024,1 10 35 0,0
25.03.2019 11:00:00 6,2 -0,3 7,8 8,3 7,1 7,7 22 12 41 22 WNW 1024,8 10 19 0,0
25.03.2019 10:00:00 6,1 0,1 9,2 6,4 7,0 7,7 21 11 34 18 WNW 1024,5 10 36 0,0
25.03.2019 09:00:00 3,6 -1,2 3,7 4,5 7,0 7,7 13 7 18 10 W 1024,3 10 0 0,0
25.03.2019 08:00:00 2,6 -1,8 1,5 3,7 7,2 7,6 11 6 16 8 W 1024,4 10 0 0,0
25.03.2019 07:00:00 0,7 -2,1 -1,8 3,1 7,5 7,6 5 3 8 4 W 1024,7 10 2 0,0
25.03.2019 06:00:00 0,3 -1,7 -3,5 3,5 7,9 7,6 9 5 11 6 W 1024,7 10 0 0,0
25.03.2019 05:00:00 0,5 -1,7 -3,4 4,0 8,2 7,6 8 4 11 6 W 1024,8 10 0 0,0
25.03.2019 04:00:00 2,2 -0,9 -2,3 4,6 8,6 7,6 8 4 11 6 W 1024,8 10 0 0,0
25.03.2019 03:00:00 1,9 -1,8 -2,3 5,3 9,0 7,6 8 4 13 7 WNW 1024,8 30 0 0,0
25.03.2019 02:00:00 3,2 0,1 0,3 5,9 9,4 7,6 9 5 11 6 WNW 1025,0 10 0 0,0
25.03.2019 01:00:00 3,6 1,0 -0,9 6,8 9,8 7,6 5 3 8 4 SW 1025,0 10 0 0,0
25.03.2019 00:00:00 5,3 1,6 1,6 7,8 10,2 7,6 8 4 13 7 WNW 1025,3 10 0 0,0
24.03.2019 23:00:00 6,7 2,3 5,2 8,5 10,5 7,6 11 6 18 10 NW 1025,2 10 0 0,0
24.03.2019 22:00:00 6,7 1,9 1,8 9,1 11,0 7,6 8 4 9 5 WNW 1025,2 10 0 0,0
24.03.2019 21:00:00 7,2 2,3 2,5 10,3 11,4 7,5 5 3 10 6 NW 1025,0 10 0 0,0
24.03.2019 20:00:00 8,1 2,5 4,8 11,9 11,6 7,5 8 4 15 8 N 1025,0 20 0 0,0
24.03.2019 19:00:00 10,6 3,1 10,2 13,1 11,9 7,5 11 6 26 14 N 1024,6 10 0 0,0
24.03.2019 18:00:00 11,4 3,5 11,2 14,5 11,9 7,5 21 11 30 16 NNW 1024,0 10 0 0,0
24.03.2019 17:00:00 12,9 4,8 13,3 15,9 11,8 7,5 9 5 22 12 N 1023,3 10 0 0,0
24.03.2019 16:00:00 12,9 4,9 14,0 17,6 11,4 7,5 15 8 24 13 N 1023,5 10 30 0,0
24.03.2019 15:00:00 13,9 4,5 17,7 17,9 10,8 7,5 15 8 22 12 WNW 1023,5 10 42 0,0
24.03.2019 14:00:00 13,5 4,8 17,0 17,7 10,1 7,5 9 5 26 14 NNW 1024,0 12 36 0,0
24.03.2019 13:00:00 13,0 4,6 17,8 16,7 9,3 7,5 6 3 16 9 NW 1024,4 12 60 0,0
24.03.2019 12:00:00 11,9 4,9 15,6 14,3 8,6 7,5 5 3 13 7 W 1024,9 12 60 0,0
24.03.2019 11:00:00 9,9 4,2 13,2 11,3 8,1 7,4 8 4 18 10 NNE 1025,5 10 60 0,0
24.03.2019 10:00:00 8,0 3,8 9,7 8,6 7,8 7,4 15 8 26 14 ENE 1026,3 10 59 0,0
24.03.2019 09:00:00 6,5 3,4 7,3 6,6 7,8 7,4 11 6 18 10 ENE 1026,8 8 60 0,0
24.03.2019 08:00:00 5,2 2,6 5,1 5,4 8,0 7,4 11 6 16 9 NE 1026,7 7 20 0,0
24.03.2019 07:00:00 3,7 1,9 2,1 5,1 8,3 7,4 10 6 15 8 ENE 1026,7 5 0 0,0
24.03.2019 06:00:00 3,8 1,9 1,3 5,5 8,6 7,4 4 2 15 8 - 1026,6 5 0 0,0
24.03.2019 05:00:00 4,2 2,0 2,4 5,8 8,9 7,4 9 5 26 14 ENE 1026,6 5 0 0,0
24.03.2019 04:00:00 4,6 2,2 3,3 6,2 9,2 7,4 15 8 26 14 ENE 1026,9 5 0 0,0
24.03.2019 03:00:00 4,9 2,1 3,3 6,7 9,6 7,4 13 7 22 12 ENE 1027,2 4,5 0 0,0
24.03.2019 02:00:00 4,8 2,0 2,5 7,3 10,0 7,3 11 6 21 11 ENE 1027,8 4,5 0 0,0
24.03.2019 01:00:00 5,2 2,2 3,4 8,0 10,4 7,3 13 7 26 14 ENE 1028,2 4,5 0 0,0
24.03.2019 00:00:00 5,8 2,3 4,6 8,7 10,8 7,3 16 9 25 13 ENE 1028,4 4,5 0 0,0
23.03.2019 23:00:00 6,0 2,4 4,9 9,5 11,3 7,3 15 8 31 17 ENE 1028,8 8 0 0,0
23.03.2019 22:00:00 7,3 2,5 6,2 10,6 11,7 7,3 24 13 38 20 NE 1029,0 10 0 0,0
23.03.2019 21:00:00 8,9 3,0 7,5 11,9 12,2 7,3 15 8 36 19 NNE 1028,5 10 0 0,0
23.03.2019 20:00:00 10,2 3,6 9,2 13,4 12,6 7,3 21 11 32 17 NE 1028,1 10 0 0,0
23.03.2019 19:00:00 12,7 3,6 11,2 15,4 12,8 7,3 15 8 22 12 NE 1027,1 10 18 0,0
23.03.2019 18:00:00 16,0 2,3 14,2 17,7 12,8 7,3 4 2 11 6 - 1026,2 10 60 0,0
23.03.2019 17:00:00 17,4 0,9 18,1 19,5 12,5 7,3 8 4 13 7 S 1025,7 10 60 0,0
23.03.2019 16:00:00 17,8 1,2 20,7 20,7 11,9 7,3 9 5 16 9 SE 1026,0 20 60 0,0
23.03.2019 15:00:00 17,7 1,8 21,5 20,9 11,1 7,3 5 3 19 10 - 1026,5 10 60 0,0
23.03.2019 14:00:00 16,1 1,6 21,0 21,2 10,1 7,3 9 5 18 10 - 1027,2 10 60 0,0
23.03.2019 13:00:00 16,0 2,1 19,6 19,6 9,0 7,3 8 4 15 8 N 1027,5 20 60 0,0
23.03.2019 12:00:00 14,4 2,5 18,7 16,9 8,0 7,2 9 5 15 8 W 1028,1 10 60 0,0
23.03.2019 11:00:00 12,1 1,5 15,7 13,4 7,2 7,2 5 3 10 5 SW 1028,8 15 60 0,0
23.03.2019 10:00:00 9,1 1,4 13,4 9,8 6,7 7,2 7 4 11 6 WNW 1029,2 15 60 0,0
23.03.2019 09:00:00 8,0 1,5 10,0 6,4 6,5 7,2 3 2 8 4 SW 1029,1 12 60 0,0
23.03.2019 08:00:00 5,2 0,5 5,2 3,7 6,7 7,2 5 3 8 4 S 1029,1 10 59 0,0
23.03.2019 07:00:00 2,0 -0,5 -1,3 3,0 7,0 7,2 2 1 4 2 - 1029,3 10 0 0,0
23.03.2019 06:00:00 2,1 -0,3 -1,5 3,4 7,3 7,2 2 1 5 3 SSW 1029,1 25 0 0,0
23.03.2019 05:00:00 3,0 -0,4 -1,2 3,9 7,6 7,2 4 2 8 4 - 1028,9 10 0 0,0
23.03.2019 04:00:00 3,9 0,0 -0,5 4,3 8,0 7,2 2 1 2 1 S 1028,9 40 0 0,0
23.03.2019 03:00:00 4,3 0,2 -0,4 4,8 8,4 7,2 4 2 5 3 WNW 1028,8 10 0 0,0
23.03.2019 02:00:00 4,7 0,2 -0,2 5,4 8,8 7,2 4 2 4 2 WNW 1028,9 10 0 0,0
23.03.2019 01:00:00 5,2 0,2 0,5 6,1 9,2 7,2 2 1 4 2 - 1028,7 10 0 0,0
23.03.2019 00:00:00 6,1 0,4 1,4 6,8 9,7 7,2 2 1 2 1 - 1028,8 10 0 0,0
22.03.2019 23:00:00 6,6 0,6 1,8 7,7 10,2 7,2 2 1 5 3 W 1028,8 10 0 0,0
22.03.2019 22:00:00 8,5 0,1 2,4 8,8 10,7 7,1 4 2 5 3 NW 1028,7 10 0 0,0
22.03.2019 21:00:00 9,9 0,3 3,3 10,2 11,2 7,1 4 2 5 3 - 1028,3 10 0 0,0
22.03.2019 20:00:00 10,7 0,1 5,6 12,0 11,6 7,1 4 2 9 5 S 1028,1 50 0 0,0
22.03.2019 19:00:00 14,0 -0,3 10,7 14,3 11,9 7,1 9 5 13 7 SSW 1027,5 10 46 0,0
22.03.2019 18:00:00 15,9 -0,8 14,7 16,6 11,8 7,1 11 6 18 10 SSW 1027,0 10 60 0,0
22.03.2019 17:00:00 16,9 -1,3 17,2 18,4 11,5 7,1 13 7 18 10 SW 1027,0 10 60 0,0
22.03.2019 16:00:00 17,4 -0,1 18,9 20,1 10,8 7,1 9 5 20 11 S 1027,3 10 60 0,0
22.03.2019 15:00:00 17,3 -0,7 19,4 19,6 10,0 7,1 10 6 21 11 S 1027,8 50 60 0,0
22.03.2019 14:00:00 16,7 0,8 19,1 18,9 9,0 7,1 8 4 15 8 E 1028,5 10 60 0,0
22.03.2019 13:00:00 15,4 -1,0 18,6 17,8 8,0 7,1 8 4 16 8 - 1029,1 10 60 0,0
22.03.2019 12:00:00 13,9 -2,3 17,3 15,1 7,0 7,1 9 5 20 11 - 1029,6 10 60 0,0
22.03.2019 11:00:00 13,0 -1,7 15,8 11,9 6,2 7,1 8 4 21 11 E 1030,0 10 60 0,0
22.03.2019 10:00:00 10,8 0,0 12,3 8,5 5,7 7,1 9 5 18 10 ESE 1030,5 10 60 0,0
22.03.2019 09:00:00 8,6 0,3 9,2 5,6 5,5 7,1 8 4 16 8 E 1030,9 10 60 0,0
22.03.2019 08:00:00 5,9 0,5 5,9 2,9 5,7 7,1 8 4 11 6 E 1031,2 10 60 0,0
22.03.2019 07:00:00 3,1 -1,2 -0,1 2,2 5,9 7,1 8 4 15 8 E 1031,5 10 3 0,0
22.03.2019 06:00:00 4,1 -1,4 -1,3 2,5 6,2 7,1 5 3 12 7 NE 1031,2 10 0 0,0
22.03.2019 05:00:00 4,5 -1,5 0,8 2,8 6,5 7,1 8 4 13 7 ENE 1031,2 40 0 0,0
22.03.2019 04:00:00 4,2 -1,5 -1,3 3,1 6,8 7,1 4 2 9 5 - 1031,3 10 0 0,0
22.03.2019 03:00:00 5,1 -1,5 -1,0 3,6 7,1 7,1 9 5 16 9 NE 1031,2 10 0 0,0
22.03.2019 02:00:00 4,8 -2,0 1,2 4,1 7,5 7,1 11 6 16 9 NE 1031,6 10 0 0,0
22.03.2019 01:00:00 5,2 -1,8 1,6 4,7 7,9 7,1 11 6 21 11 ENE 1031,9 10 0 0,0
22.03.2019 00:00:00 5,4 -1,9 1,2 5,4 8,3 7,1 9 5 11 6 ENE 1032,4 10 0 0,0
21.03.2019 23:00:00 6,2 -2,0 2,1 6,2 8,8 7,1 8 4 16 9 ENE 1032,5 10 0 0,0
21.03.2019 22:00:00 8,6 -2,1 3,8 7,2 9,2 7,0 13 7 18 10 ENE 1032,1 10 0 0,0
21.03.2019 21:00:00 7,7 -1,9 4,8 8,4 9,7 7,0 13 7 16 9 NE 1032,2 10 0 0,0
21.03.2019 20:00:00 8,8 -1,8 6,1 9,8 10,1 7,0 11 6 18 10 NE 1032,0 10 0 0,0
21.03.2019 19:00:00 10,3 -2,3 7,0 11,8 10,3 7,0 9 5 24 13 NE 1031,5 10 45 0,0
21.03.2019 18:00:00 13,5 -2,8 12,6 14,0 10,3 7,0 18 10 34 18 ENE 1030,9 10 60 0,0
21.03.2019 17:00:00 14,3 -2,8 14,4 15,9 10,0 7,0 22 12 35 19 NE 1030,8 10 60 0,0
21.03.2019 16:00:00 15,4 -4,2 16,3 16,9 9,4 7,0 18 10 34 18 NE 1030,8 10 60 0,0
21.03.2019 15:00:00 15,2 -3,1 16,9 17,2 8,6 7,0 18 10 36 20 E 1031,3 10 60 0,0
21.03.2019 14:00:00 14,5 -3,2 16,7 16,3 7,6 7,0 18 10 35 19 E 1032,1 10 60 0,0
21.03.2019 13:00:00 13,5 -2,3 15,9 14,5 6,7 7,0 20 11 39 21 E 1032,9 50 60 0,0
21.03.2019 12:00:00 12,5 -2,7 14,7 12,2 6,0 7,0 24 13 39 21 E 1033,4 10 60 0,0
21.03.2019 11:00:00 10,6 -2,1 12,5 9,4 5,3 7,0 21 11 36 20 ENE 1034,0 10 60 0,0
21.03.2019 10:00:00 9,0 -2,7 10,4 6,7 4,9 7,0 18 10 29 16 ENE 1034,4 50 60 0,0
21.03.2019 09:00:00 6,8 -2,4 7,6 4,0 4,8 7,0 15 8 24 13 ENE 1034,8 10 60 0,0
21.03.2019 08:00:00 4,3 -2,6 3,8 1,6 4,9 7,0 15 8 22 12 NE 1035,2 10 60 0,0
21.03.2019 07:00:00 1,1 -3,5 -1,1 1,6 5,1 7,0 11 6 18 10 NE 1035,5 10 0 0,0
21.03.2019 06:00:00 1,4 -3,4 -1,2 1,8 5,4 7,0 13 7 22 12 NE 1035,3 50 0 0,0
21.03.2019 05:00:00 1,8 -3,5 -0,6 2,0 5,6 7,0 13 7 21 11 NE 1035,2 10 0 0,0
21.03.2019 04:00:00 2,2 -3,4 -0,6 2,2 5,9 7,0 8 4 16 9 ENE 1034,9 10 0 0,0
21.03.2019 03:00:00 2,3 -3,0 -0,9 2,4 6,2 7,0 9 5 15 8 NE 1035,0 10 0 0,0
21.03.2019 02:00:00 3,4 -3,3 0,1 2,8 6,6 7,0 9 5 18 10 ENE 1035,3 10 0 0,0
21.03.2019 01:00:00 3,1 -2,9 -1,7 3,4 7,0 7,0 9 5 15 8 NE 1035,6 50 0 0,0
21.03.2019 00:00:00 2,8 -4,0 -0,3 4,0 7,4 7,0 11 6 16 9 NNE 1035,8 10 0 0,0
20.03.2019 23:00:00 3,8 -3,5 0,3 4,6 7,8 7,0 9 5 12 7 ENE 1035,6 10 0 0,0
20.03.2019 22:00:00 4,1 -3,2 0,3 5,5 8,3 7,0 9 5 11 6 ENE 1035,7 10 0 0,0
20.03.2019 21:00:00 4,9 -1,8 0,4 6,7 8,8 7,0 5 3 15 8 E 1035,2 10 0 0,0
20.03.2019 20:00:00 6,1 -1,9 1,9 8,1 9,2 7,0 11 6 16 9 E 1034,7 10 0 0,0
20.03.2019 19:00:00 7,8 -3,3 4,3 10,1 9,5 7,0 8 4 14 8 ENE 1034,2 40 39 0,0
20.03.2019 18:00:00 11,5 -4,5 10,4 12,2 9,5 7,0 9 5 21 11 NE 1033,7 10 60 0,0
20.03.2019 17:00:00 12,3 -3,7 12,4 14,3 9,2 7,0 8 4 21 11 NE 1033,2 10 60 0,0
20.03.2019 16:00:00 11,7 -4,2 13,6 15,2 8,7 7,0 8 4 18 10 - 1033,4 10 60 0,0
20.03.2019 15:00:00 11,4 -4,3 13,3 15,4 8,1 7,0 13 7 21 11 N 1033,7 10 60 0,0
20.03.2019 14:00:00 11,9 -2,1 14,2 14,9 7,3 7,0 10 5 23 13 E 1033,8 40 60 0,0
20.03.2019 13:00:00 10,4 -4,3 12,6 13,9 6,4 7,0 15 8 23 13 NNE 1034,8 10 60 0,0
20.03.2019 12:00:00 9,1 -3,3 12,4 12,2 5,5 7,0 9 5 18 10 E 1035,2 10 60 0,0
20.03.2019 11:00:00 9,0 -2,5 11,7 9,8 4,8 7,0 9 5 16 9 E 1035,2 10 60 0,0
20.03.2019 10:00:00 7,7 -1,4 10,0 6,3 4,3 7,0 8 4 10 6 ESE 1035,2 10 60 0,0
20.03.2019 09:00:00 5,9 -0,4 6,5 2,1 4,4 7,0 4 2 7 4 - 1035,2 10 60 0,0
20.03.2019 08:00:00 1,5 -2,3 0,6 1,1 4,5 7,0 5 3 9 5 E 1035,3 10 60 0,0
20.03.2019 07:00:00 -1,0 -3,0 -3,9 1,2 4,7 7,0 4 2 8 4 - 1035,2 10 1 0,0
20.03.2019 06:00:00 -1,0 -2,9 -4,2 1,4 4,9 7,0 2 1 8 4 - 1034,3 10 0 0,0
20.03.2019 05:00:00 -0,8 -2,8 -4,2 1,6 5,2 7,0 5 3 5 3 ENE 1034,4 10 0 0,0
20.03.2019 04:00:00 -0,3 -2,5 -3,8 1,8 5,4 7,0 2 1 9 5 WSW 1034,0 10 0 0,0
20.03.2019 03:00:00 -0,1 -2,8 -3,4 2,0 5,7 7,0 8 4 11 6 ENE 1033,8 10 0 0,0
20.03.2019 02:00:00 1,3 -2,1 -2,4 2,1 6,0 7,0 8 4 9 5 NE 1033,8 10 0 0,0
20.03.2019 01:00:00 1,7 -1,6 -2,3 2,5 6,4 7,0 5 3 11 6 ENE 1033,7 10 0 0,0
20.03.2019 00:00:00 1,6 -2,2 -1,7 3,1 6,9 7,0 9 5 12 7 ENE 1033,2 10 0 0,0
19.03.2019 23:00:00 2,5 -3,1 -1,8 3,8 7,3 7,0 8 5 11 6 ENE 1032,8 50 0 0,0
19.03.2019 22:00:00 3,7 -3,4 -1,0 4,8 7,8 7,0 2 1 9 5 - 1032,0 10 0 0,0
19.03.2019 21:00:00 4,5 -3,3 -1,1 5,9 8,3 7,0 5 3 9 5 WNW 1031,4 10 0 0,0
19.03.2019 20:00:00 6,0 -3,8 0,9 7,4 8,8 7,0 5 3 9 5 WNW 1030,8 10 0 0,0
19.03.2019 19:00:00 7,2 -3,7 2,6 9,3 9,1 7,0 6 3 13 7 WNW 1030,0 50 42 0,0
19.03.2019 18:00:00 9,0 -3,6 8,2 11,6 9,1 7,0 9 5 15 8 WNW 1029,1 10 60 0,0

tt = temperature
td = dewpoint
tt 5cm = temperature 5cm
tt -5cm = temperature -5cm
tt -20cm = temperature -20cm
tt -100cm = temperature -100cm
ff = wind speed
fx = gusts
dd = wind direction
ppp = reduced air pressure
vv = visibility
sd = sunshine duration
rr = precipitation

Next stations